When you browse on this site, cookies collect data to enhance your experience and personalize the content and advertising you see.
Visit our Privacy Policy to learn more. By continuing to use the site, you agree to this use of cookies and data.
  • In Deutschland
  • Länderverzeichnis
  • Für 7 Tage
  • Wassertemperatur
  • Wetterkarte
  • Widgets
  • user-avatar
    Anmelden

    Stündliche Wetter Preston

    Heute, 20 Februar, Donnerstag

    Zeit Temperatur Niederschläge Wind Luftdruck Luftfeuchtigkeit
    00:00 +7°C° 0.3 mm 8 m/S 750 mmHg 87%
    01:00 +7°C° 0.2 mm 8 m/S 749 mmHg 87%
    02:00 +7°C° 0.2 mm 8 m/S 748 mmHg 86%
    03:00 +7°C° 0.2 mm 8 m/S 748 mmHg 86%
    04:00 +7°C° 0.1 mm 8 m/S 747 mmHg 86%
    05:00 +7°C° 0.1 mm 9 m/S 746 mmHg 86%
    06:00 +7°C° 0.1 mm 9 m/S 746 mmHg 86%
    07:00 +6°C° 1.6 mm 8 m/S 745 mmHg 88%
    08:00 +5°C° 1.6 mm 8 m/S 745 mmHg 91%
    09:00 +5°C° 1.6 mm 7 m/S 745 mmHg 93%
    10:00 +4°C° 1.2 mm 8 m/S 746 mmHg 91%
    11:00 +2°C° 1.2 mm 9 m/S 747 mmHg 88%
    12:00 +2°C° 1.2 mm 10 m/S 748 mmHg 85%
    13:00 +2°C° 0.3 mm 11 m/S 749 mmHg 78%
    14:00 +2°C° 0.3 mm 11 m/S 751 mmHg 71%
    15:00 +2°C° 0.3 mm 12 m/S 752 mmHg 64%
    16:00 +1°C° 0.2 mm 11 m/S 753 mmHg 65%
    17:00 +1°C° 0.2 mm 11 m/S 754 mmHg 67%
    18:00 +1°C° 0.2 mm 11 m/S 755 mmHg 68%
    19:00 +1°C° 0.1 mm 11 m/S 756 mmHg 70%
    20:00 +1°C° 0.1 mm 10 m/S 757 mmHg 72%
    21:00 +1°C° 0.1 mm 10 m/S 757 mmHg 74%
    22:00 +1°C° 0.1 mm 10 m/S 758 mmHg 75%
    23:00 +1°C° 0.1 mm 10 m/S 759 mmHg 77%

    Morgen, 21 Februar, Freitag

    Zeit Temperatur Niederschläge Wind Luftdruck Luftfeuchtigkeit
    00:00 +2°C° 0.1 mm 10 m/S 759 mmHg 78%
    01:00 +2°C° 0.1 mm 10 m/S 759 mmHg 78%
    02:00 +2°C° 0.1 mm 10 m/S 759 mmHg 78%
    03:00 +2°C° 0.1 mm 9 m/S 760 mmHg 78%
    04:00 +2°C° 0 mm 9 m/S 759 mmHg 78%
    05:00 +2°C° 0 mm 9 m/S 759 mmHg 78%
    06:00 +3°C° 0 mm 9 m/S 759 mmHg 78%
    13:00 +6°C° 0.2 mm 11 m/S 756 mmHg 80%
    14:00 +6°C° 0.2 mm 11 m/S 756 mmHg 80%
    15:00 +7°C° 0.2 mm 11 m/S 755 mmHg 81%
    16:00 +7°C° 0.2 mm 11 m/S 755 mmHg 82%
    17:00 +7°C° 0.2 mm 11 m/S 755 mmHg 84%
    18:00 +7°C° 0.2 mm 11 m/S 754 mmHg 85%
    19:00 +7°C° 0.1 mm 12 m/S 754 mmHg 85%
    20:00 +7°C° 0.1 mm 12 m/S 753 mmHg 85%
    21:00 +8°C° 0.1 mm 12 m/S 753 mmHg 85%
    22:00 +8°C° 0.1 mm 12 m/S 753 mmHg 85%
    23:00 +8°C° 0.1 mm 13 m/S 753 mmHg 86%

    übermorgen, 22 Februar, Samstag

    Zeit Temperatur Niederschläge Wind Luftdruck Luftfeuchtigkeit
    00:00 +8°C° 0.1 mm 13 m/S 752 mmHg 86%
    01:00 +8°C° 0.1 mm 13 m/S 752 mmHg 85%
    02:00 +9°C° 0.1 mm 13 m/S 751 mmHg 84%
    03:00 +9°C° 0.1 mm 13 m/S 751 mmHg 83%
    04:00 +8°C° 0.3 mm 12 m/S 752 mmHg 80%
    05:00 +7°C° 0.3 mm 12 m/S 752 mmHg 76%
    06:00 +5°C° 0.3 mm 12 m/S 753 mmHg 73%
    07:00 +5°C° 0.2 mm 12 m/S 753 mmHg 74%
    08:00 +5°C° 0.2 mm 12 m/S 754 mmHg 76%
    09:00 +4°C° 0.2 mm 12 m/S 754 mmHg 77%
    10:00 +4°C° 0.3 mm 13 m/S 755 mmHg 76%
    11:00 +4°C° 0.3 mm 13 m/S 755 mmHg 76%
    12:00 +4°C° 0.3 mm 13 m/S 756 mmHg 75%
    13:00 +4°C° 0.2 mm 13 m/S 756 mmHg 76%
    14:00 +3°C° 0.2 mm 13 m/S 757 mmHg 76%
    15:00 +3°C° 0.2 mm 12 m/S 757 mmHg 77%
    16:00 +3°C° 0.2 mm 12 m/S 757 mmHg 78%
    17:00 +3°C° 0.2 mm 11 m/S 758 mmHg 78%
    18:00 +3°C° 0.2 mm 10 m/S 758 mmHg 79%
    19:00 +2°C° 0.2 mm 10 m/S 759 mmHg 81%
    20:00 +2°C° 0.2 mm 10 m/S 759 mmHg 82%
    21:00 +2°C° 0.2 mm 10 m/S 759 mmHg 84%
    22:00 +2°C° 0.1 mm 10 m/S 760 mmHg 84%
    23:00 +2°C° 0.1 mm 9 m/S 760 mmHg 85%

    23 Februar, Sonntag

    Zeit Temperatur Niederschläge Wind Luftdruck Luftfeuchtigkeit
    00:00 +2°C° 0.1 mm 9 m/S 760 mmHg 86%
    01:00 +2°C° 0.2 mm 9 m/S 759 mmHg 87%
    02:00 +2°C° 0.2 mm 8 m/S 759 mmHg 88%
    03:00 +2°C° 0.2 mm 8 m/S 759 mmHg 89%
    04:00 +3°C° 1.1 mm 7 m/S 758 mmHg 91%
    05:00 +3°C° 1.1 mm 5 m/S 757 mmHg 93%
    06:00 +4°C° 1.1 mm 4 m/S 756 mmHg 95%
    07:00 +4°C° 1.4 mm 4 m/S 756 mmHg 95%
    08:00 +4°C° 1.4 mm 4 m/S 755 mmHg 95%
    09:00 +4°C° 1.4 mm 4 m/S 755 mmHg 96%
    10:00 +3°C° 0.7 mm 5 m/S 756 mmHg 94%
    11:00 +2°C° 0.7 mm 6 m/S 757 mmHg 93%
    12:00 +2°C° 0.7 mm 7 m/S 758 mmHg 92%
    13:00 +2°C° 0.2 mm 8 m/S 759 mmHg 84%
    14:00 +2°C° 0.2 mm 8 m/S 760 mmHg 77%
    15:00 +3°C° 0.2 mm 9 m/S 761 mmHg 69%
    16:00 +2°C° 0 mm 8 m/S 762 mmHg 70%
    17:00 +3°C° 0 mm 7 m/S 763 mmHg 72%
    18:00 +2°C° 0 mm 6 m/S 764 mmHg 73%
    19:00 +2°C° 0 mm 5 m/S 765 mmHg 76%
    20:00 +3°C° 0 mm 4 m/S 766 mmHg 79%
    21:00 +1°C° 0 mm 4 m/S 767 mmHg 82%
    22:00 +2°C° 0 mm 3 m/S 768 mmHg 82%
    23:00 +3°C° 0 mm 2 m/S 768 mmHg 83%

    24 Februar, Montag

    Zeit Temperatur Niederschläge Wind Luftdruck Luftfeuchtigkeit
    00:00 +2°C° 0 mm 0 m/S 768 mmHg 84%
    01:00 +3°C° 0 mm 1 m/S 768 mmHg 83%
    02:00 +1°C° 0 mm 3 m/S 767 mmHg 83%
    03:00 0°C° 0 mm 4 m/S 767 mmHg 82%
    04:00 +1°C° 0 mm 4 m/S 765 mmHg 81%
    05:00 +1°C° 0 mm 5 m/S 764 mmHg 79%
    06:00 +1°C° 0 mm 6 m/S 763 mmHg 77%
    07:00 +1°C° 0 mm 8 m/S 761 mmHg 79%
    08:00 +1°C° 0 mm 9 m/S 759 mmHg 81%
    09:00 +2°C° 0 mm 10 m/S 757 mmHg 83%
    10:00 +5°C° 0.1 mm 10 m/S 756 mmHg 82%
    11:00 +7°C° 0.1 mm 11 m/S 754 mmHg 81%
    12:00 +9°C° 0.1 mm 11 m/S 753 mmHg 81%
    13:00 +9°C° 0.6 mm 11 m/S 752 mmHg 83%
    14:00 +9°C° 0.6 mm 12 m/S 751 mmHg 86%
    15:00 +8°C° 0.6 mm 12 m/S 751 mmHg 89%
    16:00 +8°C° 0.6 mm 12 m/S 751 mmHg 87%
    17:00 +7°C° 0.6 mm 11 m/S 751 mmHg 85%
    18:00 +7°C° 0.6 mm 10 m/S 751 mmHg 84%
    19:00 +6°C° 0.1 mm 10 m/S 751 mmHg 82%
    20:00 +6°C° 0.1 mm 10 m/S 751 mmHg 80%
    21:00 +5°C° 0.1 mm 10 m/S 752 mmHg 77%
    22:00 +3°C° 0.1 mm 10 m/S 752 mmHg 76%
    23:00 +3°C° 0.1 mm 10 m/S 752 mmHg 76%

    25 Februar, Dienstag

    Zeit Temperatur Niederschläge Wind Luftdruck Luftfeuchtigkeit
    00:00 +3°C° 0.1 mm 10 m/S 752 mmHg 75%
    01:00 +2°C° 0 mm 9 m/S 752 mmHg 75%
    02:00 +2°C° 0 mm 9 m/S 752 mmHg 76%
    03:00 +2°C° 0 mm 9 m/S 752 mmHg 76%
    04:00 +2°C° 0.1 mm 9 m/S 752 mmHg 76%
    05:00 +2°C° 0.1 mm 8 m/S 752 mmHg 76%
    06:00 +1°C° 0.1 mm 8 m/S 752 mmHg 76%
    07:00 +2°C° 0.1 mm 9 m/S 752 mmHg 77%
    08:00 +2°C° 0.1 mm 9 m/S 752 mmHg 79%
    09:00 +2°C° 0.1 mm 10 m/S 752 mmHg 80%
    10:00 +2°C° 0.6 mm 10 m/S 751 mmHg 81%
    11:00 +2°C° 0.6 mm 9 m/S 751 mmHg 82%
    12:00 +2°C° 0.6 mm 9 m/S 751 mmHg 84%
    13:00 +2°C° 0.1 mm 9 m/S 750 mmHg 80%
    14:00 +2°C° 0.1 mm 9 m/S 750 mmHg 75%
    15:00 +4°C° 0.1 mm 8 m/S 749 mmHg 71%
    16:00 +3°C° 0.3 mm 9 m/S 748 mmHg 75%
    17:00 +2°C° 0.3 mm 9 m/S 748 mmHg 78%
    18:00 +2°C° 0.3 mm 10 m/S 747 mmHg 81%
    19:00 +2°C° 0.5 mm 10 m/S 747 mmHg 82%
    20:00 +1°C° 0.5 mm 10 m/S 747 mmHg 84%
    21:00 +1°C° 0.5 mm 11 m/S 746 mmHg 85%
    22:00 -1°C° 0.2 mm 11 m/S 746 mmHg 77%
    23:00 -1°C° 0.2 mm 11 m/S 746 mmHg 69%
    Mehr zeigen